Date,TemperatureHighF,TemperatureAvgF,TemperatureLowF,DewpointHighF,DewpointAvgF,DewpointLowF,HumidityHigh,HumidityAvg,HumidityLow,PressureMaxIn,PressureMinIn,WindSpeedMaxMPH,WindSpeedAvgMPH,GustSpeedMaxMPH,PrecipitationSumIn
2013-5-1,69.6,55.1,37.0,16.3,8.2,1.8,40,17,10,30.12,30.06,15,7,15,0.00
2013-5-2,81.7,63.3,35.2,19.1,11.2,4.6,42,16,7,30.06,29.88,17,5,17,0.00
2013-5-3,77.7,64.4,49.8,11.4,7.4,2.5,14,11,8,29.91,29.77,17,8,17,0.00
2013-5-4,82.9,68.8,47.8,21.9,9.9,3.0,35,11,7,29.77,29.53,26,8,26,0.00
2013-5-5,88.0,71.0,50.7,23.4,9.5,2.5,30,10,6,29.53,29.32,20,6,20,0.00
2013-5-6,91.6,68.1,47.5,28.5,16.6,6.3,42,18,4,29.56,29.44,15,4,15,0.00
2013-5-7,89.8,65.4,46.0,35.1,19.6,7.5,64,25,5,29.71,29.56,13,4,13,0.00
2013-5-8,80.1,57.1,43.5,37.3,24.8,6.9,70,35,8,29.80,29.71,12,3,12,0.00
2013-5-9,87.1,65.9,44.1,40.7,19.4,6.9,76,27,6,29.83,29.74,12,3,12,0.00
2013-5-10,100.6,73.1,47.1,35.2,21.2,6.1,52,21,4,29.85,29.77,10,2,10,0.00
2013-5-11,99.5,72.8,53.1,38.0,24.5,6.1,46,24,4,29.85,29.68,8,2,8,0.00
2013-5-12,83.8,64.4,56.5,44.4,31.5,14.2,63,35,9,29.80,29.74,11,3,11,0.00
2013-5-13,73.2,59.1,46.9,52.7,31.9,7.2,80,44,9,29.88,29.71,21,7,21,0.08
2013-5-14,83.5,59.8,40.3,37.4,17.9,2.8,64,26,6,29.88,29.77,10,3,10,0.00
2013-5-15,65.7,52.3,43.9,41.0,29.2,15.9,64,42,15,29.77,29.68,10,3,10,0.12
2013-5-16,70.5,55.3,50.0,45.7,37.5,23.5,75,53,20,29.68,29.59,13,2,13,0.28
2013-5-17,78.4,56.7,46.0,42.6,27.7,6.8,79,42,8,29.77,29.65,12,2,12,0.08
2013-5-18,60.8,53.2,48.7,39.5,32.1,20.8,61,45,22,29.94,29.77,12,3,12,0.04
2013-5-19,70.3,55.7,46.2,47.5,28.5,6.7,75,43,9,30.06,29.91,11,5,11,0.20
2013-5-20,79.7,58.4,42.6,34.6,19.9,7.1,65,29,7,29.97,29.59,10,4,10,0.00
2013-5-21,50.9,47.8,46.2,41.7,36.4,20.9,76,66,31,29.59,29.53,8,2,8,0.12
2013-5-23,47.8,47.5,47.3,40.7,39.7,38.0,76,74,70,29.68,29.68,13,7,13,0.24
2013-5-24,64.4,52.0,46.6,41.1,30.4,11.1,79,49,13,29.77,29.68,17,6,17,0.08
2013-5-25,79.3,61.8,45.5,43.9,22.0,6.7,72,31,7,29.74,29.59,11,3,11,0.12
2013-5-26,72.0,58.2,49.8,48.3,31.0,12.3,79,44,12,29.71,29.62,17,6,17,0.24
2013-5-27,67.1,54.9,49.5,51.3,38.4,29.0,74,55,26,29.68,29.44,20,6,20,0.87
2013-5-28,71.6,58.2,50.5,44.5,26.3,6.5,74,37,9,29.62,29.44,17,6,17,0.12
2013-5-29,72.9,56.6,48.2,45.5,28.6,6.9,76,42,9,29.77,29.32,23,8,23,0.28
2013-5-30,77.5,57.9,47.1,32.9,20.6,6.8,55,29,8,29.94,29.77,13,4,13,0.08
2013-5-31,80.1,61.4,42.4,35.3,17.2,6.4,71,25,7,29.97,29.88,13,4,13,0.00